Regional Weather Roundup
Issued by NWS State College, PA

Home | Current Version | Previous Version | Graphics & Text | Print | Product List | Glossary Off
Versions: 1 2 3 4 5 6 7 8 9 10 11 12 13 14 15 16 17 18 19 20 21 22 23 24 25 26 27 28 29 30 31 32 33 34 35 36 37 38 39 40 41 42 43 44 45 46 47 48 49 50

000
ASUS41 KCTP 250710
RWRCTP
PHLRWRCTP ALL

REGIONAL WEATHER ROUNDUP
NATIONAL WEATHER SERVICE STATE COLLEGE PA
300 AM EDT MON SEP 25 2017

Note: "fair" indicates few or no clouds below 12,000 feet with no
significant weather and/or obstructions to visibility.

* = STATION THAT DOES NOT REPORT PRECIPITATION /E.G. RAIN...SNOW...ETC/
    THUNDER OR FOG.

PAZ002>004-007>009-013>016-020>023-029>032-250800-
WESTERN PENNSYLVANIA

CITY           SKY/WX    TMP DP  RH WIND       PRES   REMARKS
ERIE           CLEAR     73  65  75 S9        30.08F
MEADVILLE      CLEAR     70  65  84 CALM      30.12S
FRANKLIN*      CLEAR     66  64  94 NE3       30.14S
NEW CASTLE     FAIR      63  63 100 CALM      30.10F FOG
BEAVER COUNTY  NOT AVBL
BUTLER*        PTCLDY    63  62  97 N5        30.10F
PITTSBURGH INT PTCLDY    67  63  87 CALM      30.09S
PITTSBURGH     CLEAR     70  62  76 NE3       30.08F
INDIANA*       CLEAR     63  63 100 CALM      30.14S
LATROBE        CLEAR     63  63 100 CALM      30.10F
WASHINGTON CO* PTCLDY    61  57  88 CALM      30.09F VSB 1
$$

PAZ004>006-010>012-017>019-024>028-033>037-041-042-045-046-049>053-250800-
CENTRAL PENNSYLVANIA

CITY           SKY/WX    TMP DP  RH WIND       PRES   REMARKS
BRADFORD       CLEAR     60  60 100 CALM      30.16F FOG
DUBOIS         CLEAR     66  60  81 E3        30.13F
CLEARFIELD     CLEAR     62  61  96 N5        30.13F
JOHNSTOWN      CLEAR     67  62  84 E3        30.15F
ALTOONA        FOG       64  64 100 CALM      30.12F VSB 1
STATE COLLEGE  PTCLDY    65  64  98 CALM      30.11F FOG
WILLIAMSPORT   CLEAR     67  66  97 CALM      30.07F
SELINSGROVE    CLEAR     62  62 100 CALM      30.07F FOG
FT INDIANTOWN  CLEAR     67  67 100 CALM      30.02R
CAPITAL CITY   CLEAR     70  66  87 CALM      30.04F
HARRISBURG     CLEAR     71  70  96 NW6       30.03F
YORK           CLEAR     62  62 100 CALM      30.05S FOG
$$

PAZ038>040-043-044-047-048-054-055-060>062-067>071-250800-
EASTERN PENNSYLVANIA

CITY           SKY/WX    TMP DP  RH WIND       PRES   REMARKS
SCRANTON       CLEAR     67  64  90 SE3       30.09S
MOUNT POCONO   CLEAR     70  64  81 N8        30.12F
ALLENTOWN      CLEAR     67  64  90 CALM      30.04S
QUAKERTOWN*    SUNNY     64  64 100 CALM      30.05S
READING        CLEAR     68  68 100 CALM      30.03S
LANCASTER      CLEAR     69  68  96 W3        30.04S
COATESVILLE    SUNNY     68  64  88 W3        30.06S
POTTSTOWN      CLEAR     65  65 100 CALM      30.05S
BLUE BELL      CLEAR     63  63 100 CALM      30.04S
DOYLESTOWN     CLEAR     68  66  93 CALM      30.02F
WILLOW GROVE   NOT AVBL
NORTH PHILA    CLEAR     71  66  84 CALM      30.03S
PHILADELPHIA   PTCLDY    72  67  84 SW3       30.02S
$$




USA.gov is the U.S. government's official web portal to all federal, state and local government web resources and services.